TimeMST,TemperatureF,Dew PointF,Humidity,Sea Level PressureIn,VisibilityMPH,Wind Direction,Wind SpeedMPH,Gust SpeedMPH,PrecipitationIn,Events,Conditions,WindDirDegrees,DateUTC
12:53 AM,39.0,34.0,82,30.19,10.0,Calm,Calm,-,N/A,,Clear,0,2013-02-12 07:53:00
1:53 AM,37.9,33.1,83,30.18,10.0,Calm,Calm,-,N/A,,Clear,0,2013-02-12 08:53:00
2:53 AM,37.0,34.0,89,30.19,10.0,Calm,Calm,-,N/A,,Clear,0,2013-02-12 09:53:00
3:53 AM,36.0,33.1,89,30.19,10.0,Calm,Calm,-,N/A,,Clear,0,2013-02-12 10:53:00
4:53 AM,36.0,33.1,89,30.19,9.0,Calm,Calm,-,N/A,,Clear,0,2013-02-12 11:53:00
5:53 AM,35.1,32.0,89,30.21,9.0,Calm,Calm,-,N/A,,Clear,0,2013-02-12 12:53:00
6:53 AM,35.1,30.9,85,30.23,10.0,Calm,Calm,-,N/A,,Clear,0,2013-02-12 13:53:00
7:53 AM,35.1,32.0,89,30.27,8.0,Calm,Calm,-,N/A,,Clear,0,2013-02-12 14:53:00
8:53 AM,39.0,34.0,82,30.29,10.0,Calm,Calm,-,N/A,,Clear,0,2013-02-12 15:53:00
9:53 AM,44.1,32.0,63,30.29,10.0,Variable,3.5,-,N/A,,Clear,0,2013-02-12 16:53:00
10:53 AM,46.0,32.0,58,30.30,10.0,Calm,Calm,-,N/A,,Clear,0,2013-02-12 17:53:00
11:53 AM,48.9,28.9,46,30.29,10.0,Calm,Calm,-,N/A,,Clear,0,2013-02-12 18:53:00
12:53 PM,52.0,27.0,38,30.26,10.0,Calm,Calm,-,N/A,,Clear,0,2013-02-12 19:53:00
1:53 PM,53.1,25.0,34,30.23,10.0,Variable,4.6,-,N/A,,Clear,0,2013-02-12 20:53:00
2:53 PM,55.0,23.0,29,30.20,10.0,SW,5.8,-,N/A,,Clear,220,2013-02-12 21:53:00
3:53 PM,55.0,21.9,28,30.19,10.0,Calm,Calm,-,N/A,,Clear,0,2013-02-12 22:53:00
4:53 PM,55.9,23.0,28,30.18,10.0,West,6.9,-,N/A,,Clear,260,2013-02-12 23:53:00
5:53 PM,54.0,23.0,30,30.19,10.0,West,5.8,-,N/A,,Clear,260,2013-02-13 00:53:00
6:53 PM,52.0,21.9,31,30.20,10.0,Calm,Calm,-,N/A,,Clear,0,2013-02-13 01:53:00
7:53 PM,51.1,21.9,32,30.21,10.0,Calm,Calm,-,N/A,,Clear,0,2013-02-13 02:53:00
8:53 PM,48.9,24.1,38,30.22,10.0,Calm,Calm,-,N/A,,Clear,0,2013-02-13 03:53:00
9:53 PM,46.9,25.0,42,30.22,10.0,North,3.5,-,N/A,,Clear,10,2013-02-13 04:53:00
10:53 PM,46.0,26.1,46,30.21,10.0,Calm,Calm,-,N/A,,Clear,0,2013-02-13 05:53:00
11:53 PM,44.1,26.1,49,30.20,10.0,Calm,Calm,-,N/A,,Clear,0,2013-02-13 06:53:00